Torna al catalogo

COSMOS 783

AttivoMilitareLEO
NORAD 8458·PAYLOAD·🇷🇺 Russia

Lanciato Nov 28, 1975 da Plesetsk Cosmodrome

Loading…

Prossimi Passaggi (prossime 24 ore)

TLE

AggiornatoSource: Space-Track

Epoca: Sep 14, 2026, 06:10 UTC

1 08458U 75112A   26257.25740533  .00000090  00000-0  41745-4 0  9996
2 08458  74.0592 200.3441 0013333 251.9622 108.0077 14.33795382652953

Traccia COSMOS 783 in tempo reale con AllMySat

Download on the App Store